Location: Rooftop Observatory
(39.0308°N, 87.1711°W)
Time: 20:34:16
(UTC-05:00)

Daily predictions for brighter satellites

Satellite Brightness Start Highest point End
(mag) Time Altitude Azimuth Time Altitude Azimuth Time Altitude Azimuth
Cosmos 1939 Rocket 3.3 20:50:25 10° SE 20:54:13 44° ENE 20:57:58 10° N
Cosmos 2322 Rocket 2.5 20:49:15 10° NNW 20:54:45 53° ENE 21:00:13 10° SE
Cosmos 2026 Rocket 4.1 20:52:08 10° S 20:58:12 84° W 21:04:24 10° N
SPOT 5 3.5 20:57:38 10° SE 21:01:43 36° ENE 21:06:02 10° N
Cosmos 405 Rocket 4.1 20:58:14 10° SSW 21:01:44 40° WNW 21:05:17 10° N
SL-16 R/B 2.4 20:57:42 10° NNW 21:03:18 59° ENE 21:08:53 10° SE
CZ-2C R/B -0.3 21:02:28 10° SSE 21:04:16 86° E 21:06:06 10° N
Cosmos 371 Rocket 3.4 21:00:18 10° NNW 21:05:05 63° ENE 21:09:50 10° SSE
Cosmos 1980 Rocket 3.1 21:00:13 10° NW 21:05:39 48° WSW 21:11:05 10° S
Cosmos 2360 Rocket 3.6 21:01:28 10° N 21:06:05 25° NE 21:10:40 10° ESE
Cosmos 1151 Rocket 4.2 21:05:35 10° NNE 21:09:14 26° ENE 21:12:25 12° SE
Cosmos 1655 Rocket 4.4 21:05:42 10° SSW 21:11:52 69° W 21:18:05 10° N
ALOS 4.0 21:09:13 10° SSW 21:13:20 31° W 21:17:30 10° NNW
In-Cosmos 22 4.3 21:07:49 10° S 21:13:33 77° E 21:19:20 10° NNE
Cosmos 1538 Rocket 4.1 21:09:41 10° NNW 21:15:00 69° ENE 21:20:05 11° SSE
S3M 4.0 21:12:42 10° N 21:18:50 85° E 21:24:58 10° S
H-2A R/B 2.3 21:14:44 10° SSE 21:19:15 82° WSW 21:23:49 10° NNW
Cosmos 2228 Rocket 3.5 21:20:36 10° NNW 21:25:01 65° W 21:29:29 10° S
Cosmos 1437 Rocket 3.0 21:21:43 10° N 21:25:26 51° ENE 21:28:15 16° SSE
Cosmos 1328 Rocket 3.6 21:21:59 10° N 21:26:27 82° W 21:30:52 10° S
Cosmos 1674 3.0 21:26:16 12° SSE 21:29:37 48° E 21:33:20 10° NNE
Cosmos 1833 4.4 21:24:30 10° S 21:30:01 51° ESE 21:35:30 10° NNE
MetOp-B 4.3 21:27:23 14° SSE 21:31:57 61° ENE 21:37:14 10° N
Meteor 1-21 Rocket 4.2 21:28:14 10° S 21:33:47 84° W 21:39:21 10° N
PSLV R/B 3.1 21:31:44 18° SSE 21:33:51 74° ENE 21:36:56 10° N
CZ-4B R/B 3.8 21:30:24 10° NNE 21:35:32 50° E 21:40:24 11° S
Cosmos 1743 Rocket 4.5 21:32:45 10° SSW 21:37:06 51° W 21:41:29 10° N
Cosmos 1300 4.5 21:35:21 10° NNE 21:38:02 18° ENE 21:39:16 16° E
Cosmos 2058 3.9 21:39:47 21° SE 21:41:25 27° E 21:44:55 10° NNE
Cosmos 1328 4.3 21:40:37 21° SSE 21:42:45 40° E 21:46:28 10° NNE
GPS 2-04 Rocket1 3.9 21:39:20 10° W 21:43:13 31° SSW 21:45:05 22° SSE
Cosmos 1500 Rocket 4.0 21:39:55 10° SSW 21:44:13 63° W 21:48:35 10° N
COSMOS 2428 4.1 21:40:14 10° N 21:44:54 25° NE 21:48:24 15° ESE
Cosmos 773 Rocket 4.0 21:39:54 10° NNW 21:45:06 74° ENE 21:48:41 21° SSE
USA 229 DEB 3.7 21:40:11 10° SSW 21:47:06 89° SE 21:54:08 10° NNE
USA 229 3.7 21:40:17 10° SSW 21:47:12 89° SE 21:54:14 10° NE
Cosmos 304 Rocket 4.1 21:47:52 10° N 21:52:35 51° ENE 21:55:08 25° SE
Cosmos 883 Rocket 4.4 21:48:00 10° N 21:54:16 81° E 21:58:59 18° S
AVUM R/B 2.6 21:58:38 37° SW 21:59:19 68° WNW 22:01:45 10° NNE
Delta 2 Rocket 3.7 21:57:57 10° SW 22:00:31 29° S 22:00:31 29° S
USA 245 2.3 22:04:46 51° SSE 22:05:23 89° W 22:07:56 10° NNW
NOSS 3-1 (A) 4.1 22:05:11 26° SE 22:07:04 31° ESE 22:12:29 10° NE
DELTA 2 R/B(2) 3.9 22:07:04 10° WSW 22:08:29 51° WSW 22:08:29 51° WSW
ATLAS CENTAUR R/B 3.6 22:05:47 10° WNW 22:08:57 19° WSW 22:11:44 11° SSW
Cosmos 2219 Rocket 3.9 22:05:37 10° N 22:09:42 20° NE 22:12:41 14° E
Terra 2.8 22:08:07 25° ESE 22:09:55 33° ENE 22:14:09 10° N
Cosmos 2315 Rocket 3.9 22:04:06 10° N 22:10:20 77° E 22:14:09 25° SSE
YAOGAN 6 3.0 22:08:39 26° S 22:10:30 57° W 22:14:05 10° NNW
DELTA 2 R/B (1) 3.5 22:06:23 10° W 22:11:58 86° S 22:15:33 23° ESE
Envisat 4.4 22:08:06 10° SSW 22:12:37 33° W 22:17:12 10° NNW
SL-14 R/B 3.7 22:13:39 39° ESE 22:14:21 43° E 22:18:08 10° NNE
CZ-4 R/B 3.8 22:11:23 10° NNE 22:16:23 88° ESE 22:19:46 20° SSW
Meteor 1-27 4.4 22:11:41 10° N 22:17:21 60° ENE 22:19:54 32° SE
Cosmos 2298 Rocket 4.4 22:15:37 31° SSE 22:17:34 44° ESE 22:22:36 10° NNE
ARGOS 3.1 22:14:35 27° SSE 22:17:41 87° WSW 22:23:07 10° NNW
Cosmos 2112 Rocket 3.9 22:15:13 10° NNW 22:20:28 79° ENE 22:22:47 34° SSE
CARTOSAT-1 4.1 22:20:21 34° ESE 22:21:30 42° ENE 22:25:36 10° N
Cosmos 2219 3.1 22:16:52 15° SSW 22:21:43 75° ESE 22:27:29 10° NNE
Cosmos 405 4.3 22:18:46 10° NNW 22:22:08 37° W 22:23:51 23° SW
Cosmos 1271 Rocket 3.8 22:22:51 10° NNE 22:26:15 29° ENE 22:26:28 29° E
Cosmos 1633 Rocket 3.2 22:26:22 44° SE 22:27:24 56° E 22:31:42 10° NNE
Sich 1 3.1 22:28:02 44° SSE 22:29:14 63° E 22:33:37 10° NNE
ATLAS 2AS CENTAUR R/B 4.1 22:29:35 21° ESE 22:29:58 22° ESE 22:35:33 10° ENE
Cosmos 2322 3.8 22:25:16 10° NNW 22:30:58 71° WSW 22:33:36 33° S
H-2A R/B 2.2 22:31:47 38° SE 22:33:47 67° ENE 22:39:10 10° N
Cosmos 2237 Rocket 3.9 22:30:52 10° N 22:35:14 22° NE 22:37:50 16° E
Cosmos 1937 Rocket 4.0 22:34:59 37° ESE 22:35:38 38° ESE 22:40:27 10° NE
Cosmos 2322 Rocket 4.2 22:34:24 10° NW 22:38:18 20° W 22:42:12 10° SW
Cosmos 1805 Rocket 4.0 22:37:41 27° SSW 22:39:57 60° W 22:44:22 10° N
Cosmos 1726 2.0 22:38:04 10° N 22:41:51 86° ENE 22:42:11 73° SSE
Iridium 2 3.9 22:42:31 52° E 22:42:31 52° E 22:46:11 10° NNE
Meteor 1-11 4.4 22:42:10 25° SSW 22:45:43 75° W 22:51:29 10° N
Nadezhda 1 Rocket 4.3 22:39:54 10° N 22:45:47 49° E 22:47:40 37° SE
SL-16 R/B 4.3 22:43:10 10° WNW 22:46:51 18° W 22:50:32 10° SW
SAR-Lupe-2 3.5 22:48:16 70° ENE 22:48:16 70° ENE 22:51:47 10° N
Cosmos 2360 Rocket 2.9 22:44:54 10° NW 22:50:16 46° WSW 22:52:34 30° SSW
Cosmos 1745 Rocket 3.9 22:52:14 40° SSE 22:54:37 74° E 23:00:49 10° N
NOSS 3-1 (C) 3.3 22:50:32 14° SSW 22:55:39 86° WNW 23:02:08 10° NNE
Cosmos 1680 Rocket 4.5 22:53:24 10° NW 22:58:14 38° WSW 23:00:10 28° SW
SL-08 R/B 4.4 22:56:28 36° S 22:59:13 88° W 23:05:31 10° N
Cosmos 1707 Rocket 4.3 22:55:09 10° NNW 22:59:18 45° W 23:00:25 36° SW
Cosmos 1666 Rocket 4.4 23:00:12 31° SW 23:01:50 46° W 23:06:06 10° N
DMSP B5D2-2 4.2 23:02:33 10° N 23:07:46 71° WNW 23:09:46 38° SSW
Cosmos 2150 Rocket 4.2 23:05:24 34° SSW 23:07:49 73° WNW 23:13:18 10° NNE
Cosmos 1898 Rocket 3.7 23:10:08 36° SW 23:12:13 67° WNW 23:17:24 10° NNE
Cosmos 2227 Rocket 2.4 23:12:57 50° ESE 23:13:15 51° ESE 23:18:43 10° NNE
Cosmos 1300 4.3 23:10:31 10° NNW 23:13:46 26° W 23:14:20 25° WSW
Cosmos 1470 Rocket 3.4 23:14:54 85° SW 23:15:00 87° WNW 23:19:21 10° N
Cosmos 1933 Rocket 3.4 23:16:25 82° SSW 23:16:37 88° WNW 23:21:06 10° N
CZ-4B R/B 4.3 23:17:32 10° ENE 23:17:32 10° ENE 23:17:50 10° NE
Cosmos 2333 Rocket 2.6 23:12:17 10° NNW 23:17:55 53° ENE 23:19:13 44° ESE
Cosmos 1626 2.7 23:19:13 52° NNE 23:19:13 52° NNE 23:22:10 10° N
Cosmos 1869 3.8 23:15:40 10° N 23:19:09 51° NE 23:19:09 51° NE
Meteor 1-4 Rocket 3.6 23:19:38 10° NNW 23:22:56 41° W 23:22:56 41° W
Meteor 2-10 4.3 23:18:30 10° NNW 23:24:10 71° W 23:25:29 52° SSW
SL-16 R/B 3.8 23:21:03 10° N 23:25:39 25° NE 23:27:38 21° E
Cosmos 1386 Rocket 4.3 23:26:33 51° SSW 23:28:12 83° W 23:34:15 10° N
Cosmos 220 Rocket 4.2 23:28:58 65° W 23:29:13 66° WNW 23:33:37 10° NNE
COSMOS 2428 3.2 23:23:57 10° NW 23:29:21 46° WSW 23:30:25 41° SW
COSMOS 2455 4.1 23:30:47 10° N 23:36:07 32° NE 23:38:28 24° E
Cosmos 1455 2.9 23:33:19 10° NNW 23:36:20 51° NW 23:36:20 51° NW
FALCON 9 R/B 2.9 23:22:54 10° W 23:40:58 66° S 23:42:43 49° SE
Cosmos 2297 Rocket 2.2 23:41:00 60° ESE 23:41:03 60° ESE 23:46:37 10° NNE
SeaSat 1 2.3 23:41:22 77° ESE 23:41:38 81° ENE 23:46:35 10° NNW
NOSS 0 Rocket 3.8 23:38:18 10° NNW 23:44:28 83° WSW 23:45:28 64° S
Terra 3.4 23:47:00 23° WSW 23:47:39 24° W 23:51:31 10° NW
Cosmos 2219 Rocket 2.3 23:48:33 10° NNW 23:54:03 59° WSW 23:54:24 57° SW
